Skip Page Navigation
NASA JPL Caltech
NASA Logo - Jet Propulsion Laboratory + View the NASA Portal
+ Center for Near-Earth Object Studies
JPL Home Earth Solar System Stars & Galaxies Technology
JPL Solar System Dynamics
BODIES ORBITS EPHEMERIDES TOOLS PHYSICAL DATA DISCOVERY FAQ SITE MAP
JPL Small-Body Database Browser
Search: [ help ]  
447562 (2006 TM)
Classification: Mars-crossing Asteroid          SPK-ID: 2447562
Ephemeris | Orbit Diagram | Orbital Elements | Mission Design | Physical Parameters | Discovery Circumstances | Close-Approach Data ]

[ show orbit diagram ]
Orbital Elements at Epoch 2459000.5 (2020-May-31.0) TDB
Reference: JPL 16 (heliocentric ecliptic J2000)
 Element Value Uncertainty (1-sigma)   Units 
e .1266836360466869 7.1584e-08  
a 1.681680371681752 7.7222e-09 au
q 1.468638987528764 1.1672e-07 au
i 24.76030166344131 7.127e-06 deg
node 224.2178824008719 1.1187e-05 deg
peri 31.6550803011986 2.6472e-05 deg
M 198.3382819767685 2.7473e-05 deg
tp 2459358.199471716949
(2021-May-23.69947172)
6.1855e-05 TDB
period 796.5510412279341
2.18
5.4866e-06
1.502e-08
d
yr
n .4519484394183166 3.113e-09 deg/d
Q 1.89472175583474 8.7005e-09 au
  Orbit Determination Parameters
   # obs. used (total)      339  
   data-arc span      9490 days (25.98 yr)  
   first obs. used      1993-11-08  
   last obs. used      2019-11-02  
   planetary ephem.      DE431  
   SB-pert. ephem.      SB431-N16  
   condition code      0  
   norm. resid. RMS      .43675  
   source      ORB  
   producer      Otto Matic  
   solution date      2019-Dec-05 02:20:38  

Additional Information
 Earth MOID = .477612 au 
 Jupiter MOID = 3.13032 au 
 T_jup = 4.118 
[ show covariance matrix ]

Ephemeris | Orbit Diagram | Orbital Elements | Mission Design | Physical Parameters | Discovery Circumstances | Close-Approach Data ]

Physical Parameter Table
Parameter Symbol Value Units Sigma Reference Notes
absolute magnitude H 18.1   n/a MPO434663  

447562 (2006 TM)          Discovered 2006-Oct-02 by CSS at Catalina
Reference: Last Updated: 2015-10-28

[ show close-approach data ]
Alternate Designations
 2006 TM = 2004 VB15 = 2010 GE161 
Ephemeris | Orbit Diagram | Orbital Elements | Mission Design | Physical Parameters | Discovery Circumstances | Close-Approach Data ]
ABOUT SSD CREDITS/AWARDS PRIVACY/COPYRIGHT GLOSSARY LINKS
FirstGov 2020-Jul-05 00:29 UT
(server date/time)  
NASA Home Page
Site Manager:   Ryan S. Park
Webmaster  Alan B. Chamberlin